Dewpoint
-2 -1 0 1 1 1 2 2 2 1 1 1 0 1 -1 -2 -2 -3 -2 -2 -2 -2 -3 -2 -2 -1 -1 1 4 2 -1 -0 1 -1 -3 -3 -3 -0 1 5 6 6 6 5
-2 -1 0 1 1 1 2 2 1 1 1 1 1 -2 -2 -1 -1 -2 -2 -1 -2 -4 -4 -2 -1 0 -0 4 4 6 5 1 3 2 -2 -3 -2 -1 -1 1 4 4 7 6
-2 -0 0 0 1 1 1 1 1 1 1 -0 -1 -1 -1 -0 -2 -2 -2 -1 -2 -2 -1 -3 -1 -0 1 3 4 5 5 5 3 2 1 -0 0 -0 -1 0 5 4 6 4
-1 -0 0 0 1 1 2 0 0 1 2 1 0 -1 -2 -1 -0 -1 -2 -1 -1 -1 0 -1 -2 -1 5 4 5 5 6 8 3 1 -2 -2 0 0 0 -0 1 3 2 4
-0 -0 -0 0 0 1 2 -0 1 1 -0 0 1 -0 -0 -1 -1 -1 -0 -1 -3 -4 -1 -1 -1 -2 -2 5 5 6 5 7 6 3 0 -2 -1 -0 0 -0 -0 1 1 4
-0 -0 -0 0 0 1 2 1 1 1 0 1 2 1 -1 -1 -2 -2 -2 -2 -2 -2 -3 -5 -5 1 5 6 4 5 5 7 7 7 0 0 3 1 -0 1 1 1 3 1
-0 -0 0 0 1 1 1 1 1 1 2 1 1 -1 -1 -1 -1 -1 -3 -4 -2 -3 -4 -1 4 4 4 5 5 4 5 5 6 7 3 7 1 -1 -1 -0 -0 -1 -2 -3
-2 -1 -0 0 0 0 0 0 1 1 2 1 -1 -1 -1 -1 -2 -2 -1 -1 -2 -4 -3 0 -0 2 1 3 4 6 5 6 6 7 7 3 3 1 1 1 -0 -2 -3 -4
-2 -2 -3 -3 -1 0 -0 -0 -0 0 1 2 -1 -1 -2 -1 -0 -1 -1 -2 -2 -2 -2 -1 -0 -0 2 4 6 5 4 4 5 6 7 8 2 0 -1 -2 2 -3 -3 -2
-1 -2 -1 -3 -3 -2 -0 0 -0 -0 -1 1 1 -1 -1 -2 -1 -1 -2 -2 -2 -3 -0 1 2 1 -1 2 3 5 4 3 5 6 7 6 3 3 -2 3 1 -2 -2 -2
-0 -0 -0 -0 -1 -2 -2 -1 -0 -0 -0 -0 2 -0 -1 -1 -2 -0 -2 -1 -0 2 2 2 1 1 3 3 2 3 3 4 5 6 7 7 4 4 4 3 3 4 3 3
-1 -1 -1 -1 0 0 -1 -0 -1 0 -0 -0 0 1 1 -1 -2 -2 -2 -1 -1 0 2 1 0 0 -0 1 2 -1 4 3 4 4 4 2 4 3 3 3 2 2 3 2
-1 -1 -1 -1 -1 -1 -0 -0 -0 -0 0 0 -0 1 2 0 -1 1 -0 -1 -2 -0 -0 2 2 0 0 0 0 -2 -1 1 4 5 2 3 -1 0 1 -0 -1 -1 2 2
0 -0 -1 -1 -1 -1 0 0 0 -0 -0 0 0 -2 2 0 -1 -1 0 1 0 -0 0 2 1 1 1 0 -0 -1 -3 2 2 3 1 1 0 0 1 0 -2 -1 -1 2
-0 -0 0 -0 -1 -1 0 -0 0 0 -2 -0 1 1 -0 -1 -1 -2 1 -0 0 1 3 3 2 1 1 1 2 2 1 2 4 3 1 0 -0 -6 -4 -0 -2 -1 -1 1
0 0 1 -1 -1 1 -0 1 0 0 -1 1 1 -0 2 1 -1 -1 -0 -1 -2 -0 3 2 2 3 0 1 2 3 3 2 3 3 3 1 1 2 2 3 2 0 1 -1
-1 -1 -1 -1 -1 0 -0 -0 -0 0 -1 1 1 -0 0 0 0 0 1 2 2 2 3 3 3 3 3 1 2 1 2 1 3 3 3 3 2 2 2 1 1 1 1 1
-1 -0 1 0 -0 0 -1 1 -2 -1 0 -1 -0 -0 0 1 1 2 0 2 2 2 2 3 3 3 3 3 -1 -0 0 1 2 3 3 3 3 2 2 1 1 1 1 1
-0 -0 0 -0 0 0 0 1 1 1 -1 -1 -2 -1 1 1 1 1 1 1 1 2 0 2 2 2 -1 -2 -2 -1 -1 -1 0 2 2 2 2 2 2 2 1 1 1 1
0 -0 -1 -0 1 1 -1 -1 -2 -2 -1 -0 -2 -0 1 2 1 1 0 1 -0 3 2 3 -0 -1 -2 -3 -3 -3 -3 -2 -1 1 1 1 2 1 1 0 0 0 0 -1
-4 -2 0 0 -1 -3 -3 -0 -0 0 -1 -0 -0 0 1 1 1 2 1 1 1 2 2 1 -1 -3 -3 -4 -4 -4 -4 -4 -2 -2 -1 -1 0 -0 -0 -0 -0 -1 -1 -1
-2 -1 -1 -1 0 -0 -2 -0 -1 -1 2 -0 1 1 2 1 1 1 2 1 1 2 0 -3 -4 -3 -4 -5 -6 -6 -6 -5 -4 -3 -3 -3 -2 -3 -2 -3 -3 -3 -3 -3
-2 -2 -0 -3 -4 -5 -4 -0 -0 -1 -1 -2 -1 1 1 1 1 0 1 1 2 -0 -2 -4 -4 -5 -5 -6 -6 -7 -7 -6 -6 -6 -6 -5 -6 -5 -5 -6 -6 -6 -6 -7
-4 -5 -5 -6 -7 -5 -5 -5 -5 -3 -3 -3 -2 -1 0 -0 0 0 2 -1 -2 -4 -4 -6 -5 -6 -6 -7 -7 -8 -8 -8 -8 -8 -7 -8 -7 -8 -8 -8 -7 -7 -7 -8
-7 -7 -6 -6 -6 -6 -5 -5 -4 -5 -4 -3 -2 -0 -1 -1 -2 -3 -1 -3 -5 -5 -7 -6 -7 -7 -7 -8 -8 -9 -9 -9 -9 -9 -9 -9 -9 -9 -9 -9 -9 -9 -9 -9
-9 -8 -7 -7 -8 -8 -7 -6 -6 -5 -4 -2 -2 -2 -3 -3 -4 -5 -4 -6 -6 -7 -8 -8 -8 -8 -8 -8 -9 -9 -9 -10 -10 -10 -10 -10 -10 -10 -10 -9 -9 -9 -9 -10
-7 -7 -8 -8 -7 -7 -7 -6 -7 -5 -4 -4 -5 -6 -5 -6 -5 -6 -7 -8 -8 -9 -9 -10 -9 -10 -10 -10 -9 -9 -10 -10 -10 -10 -10 -10 -10 -10 -10 -11 -11 -11 -11 -11
Wind_Speed
36 35 32 30 28 25 25 23 5 11 31 13 11 19 12 6 11 13 12 6 6 7 4 4 4 4 4 10 5 4 12 6 12 24 14 5 20 11 10 5 5 3 5 6
34 36 35 33 32 30 29 12 10 27 40 11 17 14 14 21 11 2 4 7 11 5 3 4 6 3 9 4 4 7 8 6 8 6 14 16 11 8 12 6 4 11 6 5
37 35 35 37 35 33 32 13 5 11 35 25 13 20 19 18 16 24 27 11 8 6 8 6 7 3 6 11 3 11 4 7 15 18 6 5 5 8 15 12 5 5 8 6
38 37 37 38 37 38 36 18 8 12 10 19 16 12 9 23 19 17 9 8 21 6 5 2 11 6 3 3 8 5 5 7 12 18 16 17 6 9 10 14 9 10 8 12
38 38 40 39 40 38 43 13 9 10 1 23 22 21 25 23 15 12 14 17 10 15 18 8 13 10 10 5 2 3 7 5 14 19 19 17 19 17 19 17 6 6 7 8
37 37 38 40 42 45 36 36 19 13 14 12 16 31 22 16 16 16 22 14 13 16 7 18 20 14 9 0 2 2 4 6 9 6 6 13 8 25 22 8 6 5 7 8
37 37 38 39 39 45 38 25 17 14 8 17 25 14 21 20 18 19 16 20 11 14 14 11 3 3 4 5 5 6 6 4 1 7 8 13 18 5 10 11 13 13 6 7
30 30 32 36 39 42 48 32 20 12 10 16 19 24 15 22 28 23 20 25 25 25 21 2 4 3 5 5 6 9 5 6 3 3 5 8 13 8 15 15 20 14 10 9
31 33 34 36 37 41 46 38 41 8 3 15 28 15 20 13 15 14 25 30 26 19 1 3 7 5 3 3 5 6 7 7 5 3 6 8 2 11 7 3 6 5 7 10
34 35 36 38 39 40 44 33 41 28 4 10 21 13 19 21 14 5 5 9 17 21 3 2 5 8 6 8 7 5 1 1 3 3 4 8 5 8 8 8 5 5 7 6
33 36 41 43 44 42 44 41 30 36 14 17 7 25 13 21 25 9 5 5 5 4 7 4 5 4 7 2 5 8 7 6 4 2 2 8 4 9 3 2 7 14 20 21
30 34 37 39 40 46 45 35 40 29 14 7 13 24 22 21 32 27 18 8 6 11 4 4 3 2 0 6 7 3 2 6 6 7 8 18 7 3 6 5 10 13 18 22
32 34 32 37 39 44 53 41 36 33 16 13 21 18 21 29 25 16 12 20 15 9 10 5 4 4 5 6 5 5 5 5 4 3 8 14 16 5 11 20 14 13 16 16
29 32 36 36 39 41 48 43 39 38 12 2 8 30 18 18 18 27 15 14 17 16 10 4 3 3 5 4 3 5 8 7 8 5 5 5 8 4 7 21 15 18 18 20
29 36 33 35 38 39 45 39 37 39 25 7 4 15 23 25 26 16 23 19 15 8 1 1 3 3 2 0 2 2 6 4 3 7 9 7 9 15 7 9 11 4 7 17
17 29 37 39 37 42 40 15 37 40 20 4 3 7 19 21 22 19 22 22 16 12 7 3 5 4 7 4 4 5 13 18 18 6 22 15 11 11 10 6 7 10 10 7
19 26 40 40 40 42 17 10 27 35 35 3 1 2 6 19 14 8 6 13 10 7 5 8 6 3 3 1 3 10 12 21 17 22 10 12 13 6 4 3 3 2 3 7
35 43 47 42 38 32 9 14 31 37 14 6 3 1 3 14 6 4 6 7 11 11 6 6 3 3 2 2 11 16 16 18 11 21 18 12 6 4 7 7 5 5 6 5
42 51 54 38 16 13 19 29 29 18 4 4 3 4 3 6 4 4 7 7 1 2 2 1 5 3 4 8 13 14 15 13 15 12 10 14 15 10 10 9 9 8 8 5
21 26 11 8 12 24 26 15 4 4 6 5 2 3 3 3 2 1 1 1 2 3 4 5 4 3 3 16 13 14 14 14 13 12 17 18 17 15 13 12 10 9 8 9
15 9 9 26 18 6 6 5 3 1 3 2 1 4 3 3 3 2 3 2 2 3 2 3 3 2 5 15 14 14 12 10 8 5 5 6 5 3 4 7 9 8 8 10
14 23 17 6 6 6 5 2 2 2 2 3 2 2 2 4 3 2 3 3 1 2 2 4 3 4 12 13 15 16 13 12 12 11 9 8 8 7 8 10 11 12 13 14
8 6 6 5 7 8 5 2 3 3 3 9 7 2 2 3 3 2 2 3 2 3 4 3 2 9 12 12 12 15 14 14 15 18 18 18 19 18 17 19 19 18 20 20
7 6 6 4 5 4 3 2 2 4 6 10 6 2 1 2 1 1 3 4 4 4 3 3 4 13 12 13 13 17 20 21 23 24 25 26 26 26 25 26 25 27 28 27
8 8 5 5 4 8 7 11 4 8 10 7 3 1 6 4 3 4 4 4 5 4 2 2 8 16 17 19 20 21 22 23 25 27 29 30 29 30 31 29 29 31 31 30
7 10 4 11 3 6 10 13 10 11 10 4 4 2 3 5 3 4 6 3 4 2 2 10 18 21 22 24 24 24 25 27 30 31 31 31 31 31 30 29 29 28 28 27
6 5 18 12 5 5 9 12 15 10 6 2 3 5 3 2 3 4 4 3 2 10 16 21 23 25 25 25 25 26 27 29 31 31 29 29 26 25 26 28 25 24 23 23
Wind_Direction
260 254 249 242 233 226 218 209 207 194 187 190 215 228 212 253 286 222 248 306 280 208 317 269 251 230 264 351 333 279 222 219 228 244 257 249 232 214 186 174 220 191 166 253
258 251 246 241 231 223 216 210 173 176 186 207 218 228 231 246 261 311 247 217 224 211 218 274 268 257 297 81 44 38 347 241 240 257 257 255 238 220 211 176 137 207 196 252
255 248 244 240 230 225 215 173 166 183 197 218 216 218 227 222 217 244 256 280 303 291 269 240 264 293 311 326 55 47 29 221 255 230 244 193 209 211 218 199 181 198 220 210
250 246 241 237 230 219 214 188 214 187 203 210 216 201 210 221 224 219 243 249 237 253 279 235 245 282 290 315 18 40 50 279 248 255 221 233 247 265 237 218 200 195 209 218
246 242 238 232 225 219 213 193 184 185 108 191 204 220 222 224 208 217 212 242 254 215 234 229 291 316 302 210 304 87 22 302 326 246 235 224 222 242 260 249 211 245 227 217
245 241 237 231 227 219 213 214 211 197 198 180 191 215 219 220 214 238 237 241 240 253 266 265 265 278 269 57 148 92 125 334 352 290 253 228 235 209 232 251 213 180 231 232
245 240 236 227 214 207 205 200 181 201 204 200 216 200 208 213 218 218 237 240 232 244 247 288 201 233 228 218 237 164 154 164 336 293 291 239 256 169 223 253 253 239 217 239
240 235 230 223 220 214 212 211 198 199 220 217 221 213 205 202 219 230 241 239 253 266 278 249 267 282 299 210 217 207 183 139 152 271 279 278 241 250 212 226 245 235 216 231
240 234 230 228 223 216 212 212 213 212 234 220 214 205 200 197 209 225 241 244 243 268 64 171 218 227 186 193 118 105 95 122 141 134 280 259 357 206 245 112 256 255 193 200
238 233 229 224 222 219 215 210 216 211 251 246 193 199 201 194 180 207 194 214 238 239 194 210 242 247 198 225 176 171 166 76 161 185 246 277 256 297 183 194 258 323 316 278
239 233 229 227 221 217 212 215 218 203 211 254 231 212 178 191 201 194 183 167 219 151 187 192 222 212 208 151 187 173 173 168 160 96 277 268 302 49 26 270 354 355 14 3
237 231 226 223 220 217 208 206 213 211 202 234 265 238 230 217 204 209 197 196 164 190 154 205 192 225 224 157 229 198 222 193 185 170 201 250 272 47 344 287 328 345 4 14
234 224 220 216 215 212 207 201 195 194 190 212 241 220 223 221 217 204 205 225 223 206 242 201 193 219 151 223 227 236 241 177 208 167 240 236 254 233 224 259 290 309 306 346
230 221 220 212 208 205 202 188 182 182 166 206 240 228 233 211 228 221 215 236 205 211 249 208 202 175 183 193 197 212 222 173 213 235 260 265 243 298 319 267 269 278 279 279
220 210 201 194 190 193 188 179 185 188 177 172 214 194 220 215 225 217 219 237 239 229 250 297 231 208 106 290 17 263 357 325 203 241 230 207 226 263 211 229 235 211 268 269
145 172 176 172 173 170 154 149 187 179 174 126 155 182 185 198 205 214 218 225 229 215 161 243 263 238 166 164 195 57 19 331 6 327 318 259 272 251 251 232 227 242 259 271
122 161 158 165 162 162 144 171 180 180 193 211 86 8 171 186 161 182 205 211 209 195 206 190 193 307 356 121 171 17 356 338 344 18 36 46 30 36 62 63 27 331 282 268
113 125 134 143 155 155 142 115 167 176 186 156 135 302 101 175 159 154 178 186 200 199 206 150 148 40 101 66 359 355 354 337 340 9 37 44 36 37 34 14 15 347 354 357
118 112 134 127 110 111 110 118 136 162 166 126 95 134 166 153 122 140 176 174 133 181 114 212 160 63 35 353 345 355 349 348 330 343 18 40 48 54 47 40 42 38 42 45
99 107 110 46 93 104 123 124 122 51 33 54 94 114 79 104 90 341 83 74 163 151 222 112 70 80 44 5 355 345 345 345 346 6 11 17 30 28 34 46 55 58 68 92
88 79 86 110 116 101 73 91 106 48 26 66 103 158 142 178 136 165 209 162 176 152 196 106 78 74 12 7 8 4 0 353 1 32 30 40 52 41 56 65 70 83 100 107
114 120 113 81 47 59 81 83 48 65 100 34 10 32 104 157 162 136 178 167 126 125 67 69 65 20 15 29 23 25 28 37 45 52 53 58 77 81 93 93 94 97 103 113
85 59 66 30 2 48 48 45 32 50 13 7 360 34 71 132 177 105 134 170 131 76 52 71 42 15 38 45 51 56 63 69 74 76 79 82 85 87 86 91 93 101 103 108
55 48 37 59 13 48 30 346 300 347 356 346 340 274 70 54 108 354 75 39 27 64 67 60 19 28 54 60 67 74 75 80 83 84 87 86 87 88 91 92 96 100 101 105
52 34 40 52 49 18 353 7 10 353 344 1 359 360 49 19 49 11 51 60 64 46 61 64 37 65 76 75 73 75 80 87 90 92 90 91 92 90 90 91 94 96 97 95
59 42 19 355 28 347 1 4 355 357 0 21 28 45 78 54 41 48 22 63 47 59 54 58 78 86 82 81 83 84 86 86 87 88 90 92 90 91 94 95 92 92 93 92
43 28 27 22 3 337 340 355 337 349 12 47 48 48 30 45 55 58 30 46 69 93 77 81 90 84 84 95 94 92 93 93 92 90 88 89 91 93 90 85 84 87 88 90
Height
1422 1425 1428 1432 1436 1442 1446 1447 1449 1452 1460 1467 1460 1446 1444 1449 1448 1451 1452 1449 1445 1449 1447 1445 1441 1436 1434 1429 1429 1430 1425 1432 1438 1427 1421 1418 1421 1426 1431 1452 1456 1455 1466 1456
1410 1413 1417 1421 1426 1431 1437 1438 1442 1446 1450 1448 1440 1442 1447 1451 1452 1449 1449 1445 1442 1443 1448 1450 1438 1435 1429 1429 1430 1434 1436 1428 1437 1432 1422 1414 1420 1419 1417 1425 1436 1443 1460 1447
1398 1401 1405 1409 1414 1420 1428 1430 1434 1437 1436 1428 1433 1442 1444 1443 1445 1448 1448 1444 1443 1443 1444 1445 1439 1435 1430 1426 1429 1430 1431 1428 1425 1421 1422 1416 1416 1415 1412 1419 1444 1439 1436 1429
1384 1387 1392 1396 1402 1409 1417 1415 1415 1413 1412 1420 1430 1434 1430 1433 1437 1441 1441 1441 1444 1445 1442 1439 1437 1434 1433 1427 1428 1427 1435 1433 1418 1412 1407 1409 1408 1409 1411 1413 1417 1428 1425 1421
1369 1373 1377 1383 1389 1397 1402 1403 1403 1407 1408 1415 1426 1426 1411 1422 1429 1435 1436 1437 1433 1437 1433 1440 1438 1436 1433 1430 1427 1428 1440 1436 1423 1408 1404 1401 1403 1407 1404 1402 1409 1411 1411 1413
1354 1358 1363 1369 1375 1385 1385 1393 1393 1401 1400 1407 1414 1387 1405 1420 1431 1429 1430 1431 1433 1431 1436 1435 1433 1430 1429 1427 1427 1429 1436 1444 1441 1425 1404 1402 1411 1388 1399 1402 1401 1402 1413 1405
1340 1345 1350 1355 1361 1367 1374 1379 1384 1392 1389 1394 1374 1397 1410 1413 1420 1424 1424 1426 1429 1430 1430 1428 1428 1427 1425 1424 1425 1425 1432 1440 1445 1438 1425 1420 1379 1383 1387 1394 1392 1392 1393 1395
1329 1334 1339 1344 1352 1359 1364 1371 1376 1380 1380 1378 1387 1385 1396 1411 1414 1416 1418 1421 1426 1427 1427 1430 1429 1429 1424 1420 1420 1422 1423 1431 1440 1442 1428 1400 1386 1385 1387 1392 1389 1385 1383 1386
1319 1324 1329 1336 1343 1350 1357 1362 1369 1375 1376 1364 1374 1385 1392 1398 1404 1415 1407 1418 1421 1425 1425 1428 1428 1429 1417 1417 1421 1423 1427 1426 1431 1442 1439 1424 1385 1380 1376 1379 1395 1377 1377 1378
1308 1313 1319 1326 1333 1342 1349 1354 1361 1373 1374 1367 1372 1374 1379 1392 1397 1402 1404 1408 1415 1419 1424 1431 1425 1419 1407 1414 1418 1428 1430 1433 1431 1432 1430 1412 1385 1378 1372 1394 1389 1376 1377 1374
1295 1300 1307 1315 1324 1332 1342 1348 1354 1361 1368 1366 1368 1373 1374 1382 1388 1393 1395 1406 1404 1408 1415 1419 1417 1419 1405 1406 1402 1408 1417 1425 1425 1423 1421 1416 1380 1373 1386 1391 1382 1379 1373 1371
1283 1289 1296 1304 1312 1322 1334 1343 1348 1358 1363 1367 1367 1369 1373 1375 1379 1384 1389 1390 1391 1394 1402 1409 1405 1409 1409 1400 1405 1396 1409 1402 1409 1405 1406 1394 1378 1374 1381 1385 1382 1377 1375 1373
1271 1277 1285 1293 1302 1312 1321 1334 1341 1354 1359 1366 1368 1367 1370 1372 1375 1376 1382 1385 1388 1388 1389 1395 1393 1395 1393 1400 1401 1395 1392 1390 1393 1396 1382 1383 1377 1378 1375 1376 1374 1374 1373 1372
1257 1264 1273 1283 1294 1305 1318 1323 1332 1347 1356 1362 1361 1363 1362 1368 1369 1373 1377 1382 1383 1385 1388 1389 1391 1392 1383 1391 1388 1387 1384 1385 1383 1382 1380 1377 1374 1373 1370 1370 1370 1367 1371 1370
1243 1253 1264 1276 1289 1302 1312 1321 1330 1340 1352 1354 1356 1355 1359 1364 1367 1368 1375 1377 1380 1382 1386 1388 1387 1382 1384 1384 1387 1383 1386 1387 1385 1377 1370 1368 1366 1364 1362 1363 1365 1368 1369 1366
1240 1248 1260 1275 1289 1300 1308 1322 1331 1337 1344 1349 1353 1353 1355 1359 1363 1366 1370 1374 1375 1378 1381 1385 1380 1376 1378 1386 1386 1389 1386 1393 1385 1380 1371 1367 1367 1364 1363 1363 1362 1363 1364 1364
1249 1250 1265 1280 1293 1301 1308 1315 1319 1333 1343 1348 1349 1348 1352 1356 1361 1365 1366 1367 1371 1374 1378 1379 1376 1377 1376 1380 1380 1387 1388 1387 1382 1374 1366 1366 1368 1367 1366 1366 1364 1364 1364 1363
1262 1266 1276 1290 1301 1311 1318 1313 1319 1333 1339 1342 1349 1353 1352 1356 1359 1362 1363 1367 1369 1370 1368 1369 1373 1374 1377 1381 1391 1389 1388 1385 1380 1375 1369 1369 1370 1370 1367 1366 1363 1362 1361 1360
1278 1283 1289 1297 1305 1312 1315 1322 1330 1338 1342 1340 1345 1353 1354 1354 1357 1358 1361 1362 1366 1363 1365 1365 1369 1378 1390 1395 1392 1390 1389 1388 1384 1380 1375 1372 1370 1370 1366 1365 1363 1363 1363 1362
1292 1297 1298 1302 1310 1315 1323 1330 1333 1335 1336 1339 1344 1345 1350 1353 1355 1358 1359 1359 1364 1365 1365 1365 1377 1395 1398 1396 1393 1388 1386 1384 1382 1376 1370 1370 1368 1369 1369 1368 1367 1366 1366 1366
1296 1302 1309 1313 1317 1320 1325 1335 1340 1342 1344 1345 1347 1348 1351 1355 1356 1357 1358 1359 1361 1364 1362 1366 1384 1396 1399 1397 1394 1390 1386 1385 1381 1378 1376 1374 1373 1375 1376 1375 1371 1371 1370 1369
1303 1307 1315 1318 1321 1325 1331 1338 1340 1342 1344 1347 1347 1348 1349 1351 1353 1354 1357 1358 1360 1362 1364 1377 1396 1401 1400 1397 1396 1390 1389 1386 1382 1378 1379 1377 1375 1378 1378 1376 1375 1373 1373 1373
1311 1313 1319 1325 1331 1340 1345 1341 1342 1346 1349 1350 1349 1349 1349 1351 1353 1354 1355 1354 1356 1362 1377 1396 1405 1405 1403 1401 1399 1395 1392 1389 1386 1384 1383 1382 1381 1381 1382 1381 1380 1379 1379 1382
1317 1323 1337 1343 1353 1355 1358 1358 1356 1355 1353 1352 1350 1350 1348 1349 1351 1352 1352 1365 1365 1382 1395 1408 1408 1406 1405 1402 1400 1397 1397 1395 1393 1391 1390 1390 1391 1392 1392 1389 1389 1389 1390 1393
1330 1339 1355 1360 1363 1361 1359 1357 1355 1355 1353 1351 1351 1350 1353 1356 1358 1364 1364 1374 1393 1400 1411 1413 1413 1411 1408 1406 1404 1403 1403 1403 1402 1400 1397 1398 1400 1399 1398 1399 1400 1399 1400 1400
1348 1360 1364 1365 1363 1363 1360 1358 1356 1355 1352 1352 1354 1354 1360 1367 1374 1378 1385 1392 1406 1412 1416 1417 1415 1414 1413 1412 1412 1413 1413 1410 1408 1406 1406 1407 1408 1407 1408 1409 1408 1408 1407 1408
1365 1373 1373 1371 1369 1368 1365 1362 1359 1356 1355 1359 1360 1369 1377 1375 1382 1394 1403 1409 1414 1417 1419 1418 1417 1417 1417 1416 1416 1417 1416 1414 1412 1412 1414 1415 1418 1419 1418 1416 1417 1416 1417 1418